Location: Unspecified
(43.8044°N, 11.0278°E)
Time: 01:05:14
(UTC+02:00)

CZ-3 Stage 3 - Visible Passes

Search period start: 28 July 2016 00:00
Search period end: 07 August 2016 00:00
Orbit: 466 x 34738 km, 30.5° (Epoch: 26 July)

Date Brightness Start Highest point End Pass type
(mag) Time Alt. Az. Time Alt. Az. Time Alt. Az.
30 Jul 4.6 22:59:00 10° W 23:38:07 39° SSW 23:40:46 33° S visible
02 Aug 4.6 22:49:48 10° W 23:29:34 38° SSW 23:32:23 32° S visible
05 Aug 4.7 22:40:35 10° W 23:21:01 38° SW 23:24:01 31° S visible
